Regional Weather Roundup
Issued by NWS Charleston, SC

Current Version | Previous Version | Text Only | Print | Product List | Glossary Off
Versions: 1 2 3 4 5 6 7 8 9 10 11 12 13 14 15 16 17 18 19 20 21 22 23 24 25 26 27 28 29 30 31 32 33 34 35 36 37 38 39 40 41 42 43 44 45 46 47 48 49 50
000 ASUS42 KCHS 230827 RWRCHS REGIONAL WEATHER ROUNDUP NATIONAL WEATHER SERVICE CHARLESTON SC 400 AM EDT FRI JUN 23 2017 NOTE: "FAIR" INDICATES FEW OR NO CLOUDS BELOW 12,000 FEET WITH NO SIGNIFICANT WEATHER AND/OR OBSTRUCTIONS TO VISIBILITY. NOT ALL STATIONS ARE QUALITY CONTROLLED. USE DATA WITH CAUTION... ESPECIALLY DEWPOINT OBSERVATIONS. SCZ027-030-031-034>040-042>050-230900- ...SOUTHEAST SOUTH CAROLINA... CITY SKY/WX TMP DP RH WIND PRES REMARKS N CHARLESTON MOCLDY 78 75 90 S7 30.03F WATERFRONT PRK N/A 81 77 88 S9 30.02F JOHNS ISLAND CLOUDY 81 77 89 S8G14 30.04S PINOPOLIS N/A 77 77 100 VRB2 29.96F MONCKS CORNER FAIR 73 73 100 CALM 30.03S FOG SUMMERVILLE FAIR 75 73 94 CALM 30.04S BEAUFORT MCAS CLOUDY 80 77 90 S5 30.03F BEAUFORT ARPT FAIR 79 73 83 SW7 30.03R HILTON HEAD IS MOCLDY 81 75 83 S8 30.04S WALTERBORO MOSUNNY 73 73 100 CALM 30.04S ALLENDALE CLOUDY 77 77 100 S5 30.02S ...SOUTHERN MIDLANDS AND PEE DEE... CITY SKY/WX TMP DP RH WIND PRES REMARKS GEORGETOWN FAIR 75 75 100 CALM 30.04F KINGSTREE CLOUDY 75 73 94 CALM 30.03S ORANGEBURG CLOUDY 77 76 96 S9 30.03F BARNWELL CLOUDY 79 77 94 S6 30.03S AIKEN CLOUDY 73 73 100 S7 30.06S MANNING CLOUDY 77 77 100 S17G25 30.03S COLUMBIA CLOUDY 78 74 87 S8 30.01F SUMTER CLOUDY 77 73 88 S13 30.00F FLORENCE CLOUDY 77 76 96 SW9 30.03F MYRTLE BEACH NOT AVBL N MYRTLE BEACH CLOUDY 79 78 97 SW10 30.03F $$ GAZ063-065-086>088-099>101-113>116-118-119-134>141-150-230900- ...SOUTHEAST GEORGIA... CITY SKY/WX TMP DP RH WIND PRES REMARKS SAVANNAH ARPT PTCLDY 79 73 82 S8 30.03F HUNTER AAF MOCLDY 79 75 87 CALM 30.00F FORT STEWART PTCLDY 76 74 91 CALM 30.01F STATESBORO CLOUDY 77 77 100 S3 30.03S SYLVANIA CLOUDY 77 77 100 CALM 30.04S CLAXTON FAIR N/A N/A N/A CALM 30.03F ...CSRA...CENTRAL AND FAR SOUTHEAST GEORGIA... CITY SKY/WX TMP DP RH WIND PRES REMARKS THOMSON PTCLDY 74 72 93 W3 30.07F AUGUSTA-BUSH MOCLDY 78 75 90 S5 30.01F AUGUSTA-DANIEL CLOUDY 78 72 81 S7 30.03S SWAINSBORO CLOUDY 75 75 100 S3 30.04S FOG VIDALIA PTCLDY 75 73 94 CALM 30.03F EASTMAN FAIR 74 74 100 SE3 30.05S HAZLEHURST FAIR 76 76 100 CALM 30.02S ALMA PTCLDY 76 74 93 S5 30.02F WAYCROSS NOT AVBL JESUP FAIR 73 72 94 CALM 30.03S FOG BAXLEY FAIR 75 75 100 CALM 30.02F BRUNSWICK CLEAR 79 77 94 S6 30.03F SAINT SIMONS PTCLDY 81 75 82 S13G18 30.03F $$ SCZ027-028-034-036>038-045-046-048>050-GAZ119-141-230900- ...LAKE AND SUPPLEMENTAL COASTAL OBSERVATIONS... STATION/POSITION TIME TEMP WIND PRES WAVE SWELL AIR SEA DIR/SP/G HT/PER HT/PER/DIR (UTC) (F) (DEG/KT/KT) (MB) (FT/S) (FT/S/D) WINYAH BAY 0730 79 220/ 6 1017.0S LAKE MURRAY 0720 79 200/ 11/ 15 1015.6 ACE BASIN NERRS 0730 80 CALM 1017.0F FORT PULASKI 0800 80 83 200/ 8/ 14 1017.1 SAPELO ISLAND 0800 79 180/ 12 1017.0 $$ ANZ835-935-AMZ111-154-330-350-352-354-370-450-454-472-230900- ...C-MAN AND BUOY OBSERVATIONS... STATION/POSITION TIME TEMP WIND PRES WAVE SWELL AIR SEA DIR/SP/G HT/PER HT/PER/DIR (UTC) (F) (DEG/KT/KT) (MB) (FT/S) (FT/S/D) BUOY 41004 0810 81 81 200/ 16/ 17 1016.8 BUOY 41008 0750 81 82 170/ 16/ 19 1016.6F 4/ 5 2/100/ 8 FOLLY BEACH CMAN 0800 81 200/ 14/ 19 1017.6F CAPERS NEARSHORE 0708 85 82 210/ 16/ 19 1017.2F FRIPP NEARSHORE 0708 81 83 200/ 16/ 21 1016.7F STATION/POSITION TIME TEMP WIND PRES WAVE SWELL AIR SEA DIR/SP/G HT/PER HT/PER/DIR (UTC) (F) (DEG/KT/KT) (MB) (FT/S) (FT/S/D) 5E ST. MARYS GA 0800 81 N/A 4/ 4 FRYING PAN BUOY 0810 81 81 220/ 16/ 17 1017.0 BUOY 41025 0750 80 80 260/ 12/ 14 1016.8F 3/ 8 2/160/ 8 CAPE LOOKOUT NC 0800 79 230/ 8/ 11 1016.5F BUOY 41002 0750 80 82 210/ 12/ 14 1018.7F 4/ 8 3/120/ 8 BUOY 41010 0810 82 83 150/ 12/ 14 1017.5 ST AUGUSTINE FL 0800 76 78 170/ 6/ 7 1017.9F $$

USA.gov is the U.S. government's official web portal to all federal, state and local government web resources and services.